Simultaneous Nadir Overpasses (SNOs) Predictions

Prediction of SNOs between NOAA-19 and TERRA Satellite Orbit:

Table of predicted SNOs for the next 14.0 days since TLE Epoch: 10/2/2021
Index Date (NOAA-19) Time (NOAA-19) Lat,Lon (NOAA-19) SZA (NOAA-19 ) Date (TERRA) Time (TERRA) Lat,Lon (TERRA) SZA (TERRA ) Distance(km) Time Diff (sec)
1 10/03/2021 14:14:09 80.45, 1.11 86.56 10/03/2021 14:14:14 80.47, 1.22 86.59 3.54 5
2 10/05/2021 19:47:10 -80.45, 97.82 92.57 10/05/2021 19:47:56 -80.47, 97.71 92.56 2.40 46
3 10/05/2021 20:38:15 80.44, -94.72 87.46 10/05/2021 20:37:22 80.47, -94.64 87.46 3.18 53
4 10/08/2021 01:20:25 80.51,-166.54 88.24 10/08/2021 01:21:38 80.43,-166.12 88.24 12.03 73
5 10/08/2021 02:11:16 -80.45, 1.96 91.68 10/08/2021 02:11:04 -80.46, 1.85 91.69 2.31 12
6 10/10/2021 07:44:28 80.46, 98.59 89.18 10/10/2021 07:44:44 80.48, 98.60 89.21 2.26 16
7 10/10/2021 08:35:22 -80.45, -93.92 90.80 10/10/2021 08:34:12 -80.45, -94.05 90.84 2.48 70
8 10/12/2021 13:17:30 -80.48,-165.06 89.99 10/12/2021 13:18:26 -80.47,-164.94 89.97 2.81 56
9 10/12/2021 14:08:34 80.46, 2.66 90.05 10/12/2021 14:07:52 80.46, 2.66 90.04 0.60 42



Historial Predications of SNOs between NOAA-19 and TERRA
